DLH1704 EDDM-LBSF

Flight info

Callsign DLH1704
Flight time 1h 33m
Altitude 35000
Route ROTAX4E/08R ROTAX L603 LATLO DCT OBEDI DCT VAMET DCT RASIN DCT TUVAR DCT TPL DCT NISVA
Aircraft A321/M-SDE3FGHIRWY/LB1

Departure

Time 2026-05-01 12:12
Airport Munich Airport (EDDM)

Arrival

Time 2026-05-01 13:46
Airport Sofia Airport (LBSF)
Time Latitude Longitude Altitude Speed Heading
2026-05-01 11:25 48.35201 11.79781 1457 ft 0 kts 83°
2026-05-01 12:00 48.35199 11.79744 1467 ft 3 kts 88°
2026-05-01 12:00 48.35199 11.79713 1464 ft 3 kts 92°
2026-05-01 12:00 48.35205 11.79655 1460 ft 3 kts 119°
2026-05-01 12:01 48.35216 11.79635 1456 ft 2 kts 161°
2026-05-01 12:01 48.35221 11.79632 1456 ft 0 kts 173°
2026-05-01 12:04 48.35213 11.79633 1463 ft 4 kts 173°
2026-05-01 12:04 48.35147 11.79626 1467 ft 11 kts 207°
2026-05-01 12:04 48.35072 11.79590 1467 ft 12 kts 176°
2026-05-01 12:05 48.34999 11.79589 1467 ft 8 kts 197°
2026-05-01 12:05 48.34915 11.79546 1459 ft 6 kts 173°
2026-05-01 12:05 48.34870 11.79555 1461 ft 7 kts 172°
2026-05-01 12:06 48.34801 11.79542 1462 ft 16 kts 214°
2026-05-01 12:06 48.34776 11.79379 1465 ft 17 kts 263°
2026-05-01 12:06 48.34759 11.79167 1467 ft 27 kts 264°
2026-05-01 12:06 48.34737 11.78876 1457 ft 28 kts 263°
2026-05-01 12:07 48.34716 11.78575 1465 ft 30 kts 263°
2026-05-01 12:07 48.34691 11.78279 1462 ft 27 kts 263°
2026-05-01 12:07 48.34669 11.77994 1466 ft 28 kts 263°
2026-05-01 12:07 48.34644 11.77696 1467 ft 29 kts 263°
2026-05-01 12:08 48.34623 11.77386 1457 ft 30 kts 264°
2026-05-01 12:08 48.34599 11.77065 1466 ft 31 kts 263°
2026-05-01 12:08 48.34573 11.76736 1466 ft 32 kts 264°
2026-05-01 12:08 48.34547 11.76398 1463 ft 33 kts 264°
2026-05-01 12:09 48.34521 11.76050 1461 ft 34 kts 263°
2026-05-01 12:09 48.34495 11.75723 1466 ft 31 kts 263°
2026-05-01 12:09 48.34471 11.75409 1466 ft 24 kts 264°
2026-05-01 12:09 48.34417 11.75220 1459 ft 20 kts 201°
2026-05-01 12:10 48.34312 11.75224 1464 ft 10 kts 173°
2026-05-01 12:10 48.34130 11.75258 1463 ft 15 kts 169°
2026-05-01 12:10 48.34086 11.75346 1472 ft 8 kts 86°
2026-05-01 12:11 48.34086 11.75350 1472 ft 0 kts 85°
2026-05-01 12:11 48.34087 11.75370 1474 ft 14 kts 85°
2026-05-01 12:12 48.34128 11.75906 1468 ft 85 kts 83°
2026-05-01 12:12 48.34219 11.77085 1465 ft 142 kts 83°
2026-05-01 12:12 48.34350 11.78787 1588 ft 176 kts 84°
2026-05-01 12:12 48.34484 11.80561 2412 ft 168 kts 84°
2026-05-01 12:13 48.34614 11.82312 3232 ft 169 kts 84°
2026-05-01 12:13 48.34748 11.84120 3641 ft 183 kts 84°
2026-05-01 12:13 48.34900 11.86133 3851 ft 205 kts 84°
2026-05-01 12:13 48.35071 11.88372 4150 ft 224 kts 84°
2026-05-01 12:14 48.35252 11.90724 4867 ft 227 kts 85°
2026-05-01 12:14 48.35345 11.93120 5497 ft 231 kts 101°
2026-05-01 12:14 48.34832 11.95490 5879 ft 249 kts 112°
2026-05-01 12:14 48.34126 11.97918 6487 ft 256 kts 113°
2026-05-01 12:15 48.33382 12.00382 7136 ft 261 kts 114°
2026-05-01 12:15 48.32627 12.02879 7833 ft 262 kts 113°
2026-05-01 12:15 48.31875 12.05387 8465 ft 266 kts 112°
2026-05-01 12:15 48.31091 12.07928 9106 ft 271 kts 118°
2026-05-01 12:16 48.29912 12.10180 9709 ft 279 kts 134°
2026-05-01 12:16 48.28283 12.11831 10322 ft 288 kts 152°
2026-05-01 12:16 48.26421 12.13067 10661 ft 302 kts 152°
2026-05-01 12:16 48.24423 12.14394 10796 ft 323 kts 152°
2026-05-01 12:17 48.22382 12.15748 11264 ft 328 kts 153°
2026-05-01 12:17 48.20276 12.17142 11784 ft 332 kts 153°
2026-05-01 12:17 48.18154 12.18546 12339 ft 337 kts 153°
2026-05-01 12:17 48.15994 12.19978 12895 ft 340 kts 153°
2026-05-01 12:18 48.13838 12.21458 13423 ft 343 kts 148°
2026-05-01 12:18 48.11837 12.23387 13933 ft 344 kts 140°
2026-05-01 12:18 48.09884 12.25487 14458 ft 347 kts 141°
2026-05-01 12:18 48.07915 12.27590 14979 ft 349 kts 141°
2026-05-01 12:19 48.05928 12.29707 15507 ft 352 kts 141°
2026-05-01 12:19 48.03933 12.31831 16036 ft 354 kts 141°
2026-05-01 12:19 48.01917 12.33974 16562 ft 356 kts 141°
2026-05-01 12:19 47.99890 12.36124 17087 ft 358 kts 141°
2026-05-01 12:20 47.97868 12.38312 17594 ft 359 kts 137°
2026-05-01 12:20 47.96014 12.40807 18086 ft 360 kts 133°
2026-05-01 12:20 47.94181 12.43380 18585 ft 363 kts 133°
2026-05-01 12:20 47.92337 12.45962 19015 ft 365 kts 133°
2026-05-01 12:21 47.90479 12.48560 19426 ft 368 kts 133°
2026-05-01 12:21 47.88608 12.51171 19837 ft 370 kts 133°
2026-05-01 12:21 47.86719 12.53797 20245 ft 373 kts 133°
2026-05-01 12:21 47.84810 12.56440 20670 ft 375 kts 133°
2026-05-01 12:22 47.82894 12.59091 21077 ft 378 kts 133°
2026-05-01 12:22 47.81003 12.61745 21494 ft 380 kts 131°
2026-05-01 12:22 47.79119 12.64505 21900 ft 382 kts 130°
2026-05-01 12:22 47.77262 12.67302 22580 ft 376 kts 130°
2026-05-01 12:23 47.75433 12.70084 23063 ft 377 kts 130°
2026-05-01 12:23 47.73600 12.72872 23505 ft 379 kts 129°
2026-05-01 12:23 47.71744 12.75674 23924 ft 381 kts 130°
2026-05-01 12:23 47.69866 12.78484 24251 ft 384 kts 130°
2026-05-01 12:24 47.67976 12.81296 24572 ft 386 kts 130°
2026-05-01 12:24 47.66062 12.84126 24903 ft 389 kts 130°
2026-05-01 12:24 47.64143 12.86962 25223 ft 391 kts 130°
2026-05-01 12:24 47.62214 12.89814 25527 ft 393 kts 130°
2026-05-01 12:25 47.60274 12.92683 25837 ft 394 kts 130°
2026-05-01 12:25 47.56366 12.98454 26419 ft 399 kts 130°
2026-05-01 12:25 47.54392 13.01362 26721 ft 401 kts 130°
2026-05-01 12:26 47.52409 13.04279 27024 ft 403 kts 130°
2026-05-01 12:26 47.48410 13.10153 27624 ft 405 kts 130°
2026-05-01 12:26 47.46446 13.13026 28173 ft 400 kts 130°
2026-05-01 12:27 47.44476 13.15908 28652 ft 397 kts 130°
2026-05-01 12:27 47.40564 13.21626 29426 ft 395 kts 130°
2026-05-01 12:28 47.36662 13.27318 30103 ft 394 kts 130°
2026-05-01 12:28 47.34776 13.30226 30423 ft 390 kts 124°
2026-05-01 12:28 47.31827 13.36808 30993 ft 379 kts 110°
2026-05-01 12:29 47.30811 13.40319 31327 ft 375 kts 105°
2026-05-01 12:29 47.29847 13.43935 31610 ft 374 kts 105°
2026-05-01 12:29 47.27945 13.50983 32180 ft 371 kts 105°
2026-05-01 12:30 47.26027 13.58028 32732 ft 369 kts 105°
2026-05-01 12:30 47.25071 13.61536 32989 ft 369 kts 105°
2026-05-01 12:30 47.24114 13.65043 33142 ft 368 kts 105°
2026-05-01 12:31 47.23164 13.68534 33283 ft 368 kts 105°
2026-05-01 12:31 47.22207 13.72049 33414 ft 369 kts 106°
2026-05-01 12:31 47.21259 13.75519 33586 ft 371 kts 105°
2026-05-01 12:31 47.20291 13.79061 33805 ft 373 kts 105°
2026-05-01 12:32 47.19327 13.82585 34022 ft 373 kts 105°
2026-05-01 12:32 47.17372 13.89715 34384 ft 376 kts 105°
2026-05-01 12:32 47.16403 13.93236 34521 ft 377 kts 105°
2026-05-01 12:33 47.15416 13.96811 34683 ft 378 kts 105°
2026-05-01 12:33 47.14418 14.00408 34807 ft 380 kts 105°
2026-05-01 12:33 47.13417 14.04011 34932 ft 382 kts 105°
2026-05-01 12:33 47.12411 14.07639 35053 ft 384 kts 106°
2026-05-01 12:34 47.11405 14.11268 35175 ft 385 kts 106°
2026-05-01 12:34 47.10394 14.14909 35335 ft 386 kts 105°
2026-05-01 12:34 47.08357 14.22246 35357 ft 396 kts 105°
2026-05-01 12:35 47.06237 14.29836 35358 ft 406 kts 106°
2026-05-01 12:35 47.04057 14.37618 35357 ft 418 kts 106°
2026-05-01 12:36 47.01806 14.45629 35356 ft 429 kts 106°
2026-05-01 12:36 46.99515 14.53759 35348 ft 433 kts 106°
2026-05-01 12:37 46.97220 14.61850 35355 ft 433 kts 106°
2026-05-01 12:37 46.94898 14.70003 35357 ft 433 kts 106°
2026-05-01 12:38 46.92950 14.76833 35353 ft 433 kts 106°
2026-05-01 12:38 46.90622 14.84974 35359 ft 434 kts 106°
2026-05-01 12:39 46.88295 14.93085 35387 ft 434 kts 106°
2026-05-01 12:39 46.85947 15.01233 35389 ft 434 kts 106°
2026-05-01 12:40 46.83602 15.09353 35391 ft 434 kts 106°
2026-05-01 12:40 46.81247 15.17486 35393 ft 434 kts 106°
2026-05-01 12:41 46.78899 15.25571 35395 ft 433 kts 106°
2026-05-01 12:41 46.76107 15.33408 35394 ft 443 kts 118°
2026-05-01 12:42 46.72528 15.40699 35395 ft 443 kts 118°
2026-05-01 12:42 46.68959 15.47982 35390 ft 444 kts 118°
2026-05-01 12:43 46.65367 15.55313 35400 ft 444 kts 118°
2026-05-01 12:43 46.61797 15.62569 35380 ft 441 kts 118°
2026-05-01 12:44 46.58208 15.69826 35387 ft 442 kts 118°
2026-05-01 12:45 46.51022 15.84297 35396 ft 443 kts 118°
2026-05-01 12:45 46.47412 15.91559 35399 ft 443 kts 118°
2026-05-01 12:46 46.43797 15.98808 35378 ft 443 kts 118°
2026-05-01 12:46 46.40190 16.06014 35379 ft 443 kts 118°
2026-05-01 12:47 46.36584 16.13208 35381 ft 443 kts 118°
2026-05-01 12:47 46.32956 16.20424 35380 ft 443 kts 118°
2026-05-01 12:48 46.29316 16.27633 35371 ft 441 kts 118°
2026-05-01 12:48 46.25715 16.34750 35367 ft 441 kts 118°
2026-05-01 12:49 46.22083 16.41913 35370 ft 442 kts 118°
2026-05-01 12:49 46.18445 16.49074 35385 ft 442 kts 118°
2026-05-01 12:50 46.14809 16.56222 35369 ft 440 kts 118°
2026-05-01 12:50 46.11189 16.63296 35351 ft 437 kts 118°
2026-05-01 12:51 46.07873 16.70497 35367 ft 429 kts 111°
2026-05-01 12:52 46.03534 16.81803 35371 ft 430 kts 111°
2026-05-01 12:52 45.98767 16.92839 35365 ft 433 kts 116°
2026-05-01 12:53 45.93599 17.03562 35371 ft 434 kts 116°
2026-05-01 12:54 45.90241 17.10707 35372 ft 434 kts 115°
2026-05-01 12:54 45.85224 17.21525 35365 ft 433 kts 115°
2026-05-01 12:55 45.80219 17.32224 35361 ft 432 kts 115°
2026-05-01 12:56 45.76858 17.39375 35364 ft 433 kts 115°
2026-05-01 12:56 45.73485 17.46522 35368 ft 433 kts 116°
2026-05-01 12:57 45.70101 17.53678 35390 ft 434 kts 116°
2026-05-01 12:57 45.65004 17.64416 35377 ft 434 kts 116°
2026-05-01 12:58 45.61603 17.71577 35374 ft 434 kts 116°
2026-05-01 12:59 45.56510 17.82256 35408 ft 435 kts 116°
2026-05-01 12:59 45.51404 17.92921 35346 ft 436 kts 116°
2026-05-01 13:00 45.46237 18.03670 35355 ft 438 kts 116°
2026-05-01 13:01 45.41065 18.14372 35385 ft 439 kts 117°
2026-05-01 13:02 45.35864 18.25136 35360 ft 440 kts 117°
2026-05-01 13:07 44.96948 19.04213 35355 ft 450 kts 119°
2026-05-01 13:08 44.93340 19.11452 35354 ft 450 kts 119°
2026-05-01 13:08 44.89732 19.18687 35358 ft 451 kts 119°
2026-05-01 13:09 44.86131 19.25876 35346 ft 451 kts 119°
2026-05-01 13:09 44.82499 19.33110 35360 ft 451 kts 119°
2026-05-01 13:10 44.78880 19.40298 35343 ft 453 kts 120°
2026-05-01 13:10 44.75225 19.47537 35341 ft 454 kts 120°
2026-05-01 13:11 44.71550 19.54783 35347 ft 454 kts 120°
2026-05-01 13:11 44.67889 19.61981 35345 ft 455 kts 120°
2026-05-01 13:12 44.64195 19.69238 35357 ft 455 kts 121°
2026-05-01 13:12 44.60528 19.76455 35345 ft 457 kts 121°
2026-05-01 13:13 44.56818 19.83712 35336 ft 458 kts 121°
2026-05-01 13:13 44.53087 19.90984 35337 ft 459 kts 121°
2026-05-01 13:14 44.49349 19.98247 35350 ft 460 kts 122°
2026-05-01 13:14 44.45624 20.05487 35344 ft 460 kts 122°
2026-05-01 13:15 44.41863 20.12766 35337 ft 461 kts 122°
2026-05-01 13:15 44.38124 20.19991 35338 ft 461 kts 122°
2026-05-01 13:16 44.34344 20.27281 35351 ft 462 kts 122°
2026-05-01 13:16 44.30559 20.34550 35304 ft 465 kts 123°
2026-05-01 13:17 44.22915 20.49172 35300 ft 469 kts 123°
2026-05-01 13:18 44.17117 20.60228 35316 ft 472 kts 123°
2026-05-01 13:18 44.13251 20.67578 35313 ft 472 kts 123°
2026-05-01 13:19 44.09359 20.74957 35313 ft 473 kts 123°
2026-05-01 13:20 44.03489 20.86018 35320 ft 474 kts 124°
2026-05-01 13:20 43.99569 20.93407 35313 ft 475 kts 124°
2026-05-01 13:21 43.93683 21.04479 35294 ft 475 kts 124°
2026-05-01 13:21 43.89739 21.11860 35305 ft 476 kts 124°
2026-05-01 13:22 43.85808 21.19199 35305 ft 477 kts 124°
2026-05-01 13:22 43.81846 21.26577 35308 ft 477 kts 124°
2026-05-01 13:23 43.77865 21.33953 35292 ft 476 kts 124°
2026-05-01 13:23 43.75915 21.37565 34951 ft 472 kts 125°
2026-05-01 13:23 43.73963 21.41181 34475 ft 468 kts 125°
2026-05-01 13:24 43.72019 21.44780 33918 ft 467 kts 125°
2026-05-01 13:24 43.70070 21.48379 33353 ft 466 kts 125°
2026-05-01 13:24 43.68124 21.51966 32785 ft 466 kts 125°
2026-05-01 13:25 43.64887 21.57926 31882 ft 466 kts 125°
2026-05-01 13:25 43.62941 21.61503 31353 ft 465 kts 125°
2026-05-01 13:25 43.60990 21.65080 30844 ft 465 kts 124°
2026-05-01 13:25 43.58409 21.69803 30147 ft 465 kts 124°
2026-05-01 13:26 43.57076 21.72244 29717 ft 467 kts 125°
2026-05-01 13:26 43.55156 21.75762 29128 ft 467 kts 126°
2026-05-01 13:26 43.53200 21.79343 28540 ft 468 kts 125°
2026-05-01 13:26 43.51233 21.82931 27963 ft 468 kts 125°
2026-05-01 13:27 43.49274 21.86504 27395 ft 465 kts 125°
2026-05-01 13:27 43.47324 21.90057 26840 ft 463 kts 125°
2026-05-01 13:27 43.43466 21.97070 25767 ft 456 kts 126°
2026-05-01 13:28 43.39667 22.03967 24725 ft 449 kts 126°
2026-05-01 13:28 43.37807 22.07335 24225 ft 447 kts 125°
2026-05-01 13:29 43.33985 22.14030 23096 ft 442 kts 133°
2026-05-01 13:29 43.29666 22.19940 21853 ft 433 kts 134°
2026-05-01 13:30 43.21263 22.31311 19702 ft 411 kts 134°
2026-05-01 13:31 43.17243 22.36719 18209 ft 392 kts 134°
2026-05-01 13:31 43.11573 22.44346 16105 ft 360 kts 133°
2026-05-01 13:32 43.08140 22.48951 15173 ft 337 kts 133°
2026-05-01 13:33 43.03268 22.55484 13324 ft 319 kts 133°
2026-05-01 13:33 43.00154 22.59652 12103 ft 308 kts 133°
2026-05-01 13:34 42.97111 22.63714 10900 ft 303 kts 133°
2026-05-01 13:34 42.94178 22.67626 10249 ft 291 kts 133°
2026-05-01 13:35 42.91295 22.71468 9488 ft 286 kts 134°
2026-05-01 13:35 42.89874 22.73355 9116 ft 283 kts 133°
2026-05-01 13:35 42.87090 22.77050 8538 ft 274 kts 134°
2026-05-01 13:36 42.85745 22.78831 8399 ft 265 kts 131°
2026-05-01 13:36 42.84443 22.80552 8214 ft 256 kts 132°
2026-05-01 13:36 42.81906 22.83914 7614 ft 252 kts 132°
2026-05-01 13:37 42.80647 22.85584 7326 ft 251 kts 132°
2026-05-01 13:37 42.79419 22.87214 7030 ft 247 kts 132°
2026-05-01 13:37 42.78189 22.88845 6968 ft 248 kts 130°
2026-05-01 13:37 42.76943 22.90491 6973 ft 250 kts 133°
2026-05-01 13:38 42.74464 22.93757 6975 ft 241 kts 130°
2026-05-01 13:38 42.73302 22.95382 6976 ft 237 kts 123°
2026-05-01 13:38 42.72495 22.97269 6986 ft 233 kts 108°
2026-05-01 13:39 42.72112 22.99382 6978 ft 230 kts 95°
2026-05-01 13:39 42.71960 23.01559 6990 ft 229 kts 91°
2026-05-01 13:39 42.71848 23.03651 6992 ft 213 kts 90°
2026-05-01 13:39 42.71741 23.05589 6863 ft 200 kts 92°
2026-05-01 13:40 42.71637 23.07433 6620 ft 191 kts 90°
2026-05-01 13:40 42.71539 23.09182 6372 ft 187 kts 91°
2026-05-01 13:40 42.71441 23.10917 6117 ft 182 kts 91°
2026-05-01 13:40 42.71343 23.12622 5869 ft 178 kts 90°
2026-05-01 13:41 42.71249 23.14276 5616 ft 173 kts 92°
2026-05-01 13:41 42.71156 23.15901 5399 ft 171 kts 90°
2026-05-01 13:41 42.71065 23.17488 5176 ft 170 kts 91°
2026-05-01 13:41 42.70973 23.19078 4935 ft 167 kts 90°
2026-05-01 13:42 42.70881 23.20671 4707 ft 167 kts 90°
2026-05-01 13:42 42.70791 23.22228 4471 ft 165 kts 89°
2026-05-01 13:42 42.70700 23.23795 4236 ft 165 kts 89°
2026-05-01 13:42 42.70611 23.25336 3968 ft 161 kts 92°
2026-05-01 13:43 42.70524 23.26823 3733 ft 156 kts 90°
2026-05-01 13:43 42.70439 23.28281 3518 ft 153 kts 92°
2026-05-01 13:43 42.70356 23.29681 3282 ft 144 kts 88°
2026-05-01 13:43 42.70276 23.31057 3090 ft 145 kts 90°
2026-05-01 13:44 42.70196 23.32413 2896 ft 146 kts 91°
2026-05-01 13:44 42.70116 23.33781 2733 ft 143 kts 92°
2026-05-01 13:44 42.70037 23.35115 2542 ft 141 kts 90°
2026-05-01 13:44 42.69959 23.36427 2355 ft 139 kts 90°
2026-05-01 13:45 42.69881 23.37751 2138 ft 140 kts 93°
2026-05-01 13:45 42.69803 23.39072 1904 ft 139 kts 89°
2026-05-01 13:45 42.69723 23.40379 1747 ft 129 kts 92°
2026-05-01 13:45 42.69667 23.41414 1744 ft 86 kts 95°
2026-05-01 13:46 42.69637 23.41977 1741 ft 42 kts 96°
2026-05-01 13:46 42.69605 23.42356 1750 ft 39 kts 95°
2026-05-01 13:46 42.69535 23.42641 1745 ft 28 kts 123°
2026-05-01 13:46 42.69432 23.42740 1745 ft 14 kts 198°
2026-05-01 13:47 42.69403 23.42667 1747 ft 9 kts 262°
2026-05-01 13:47 42.69405 23.42576 1747 ft 10 kts 279°
2026-05-01 13:47 42.69411 23.42488 1749 ft 8 kts 272°
2026-05-01 13:47 42.69371 23.42425 1746 ft 11 kts 203°
2026-05-01 13:48 42.69289 23.42403 1747 ft 13 kts 195°
2026-05-01 13:48 42.69229 23.42311 1750 ft 14 kts 249°
2026-05-01 13:48 42.69199 23.42174 1746 ft 16 kts 255°
2026-05-01 13:48 42.69166 23.42023 1748 ft 17 kts 253°
2026-05-01 13:49 42.69130 23.41858 1744 ft 19 kts 253°
2026-05-01 13:49 42.69100 23.41724 1745 ft 14 kts 254°
2026-05-01 13:49 42.69071 23.41603 1744 ft 11 kts 240°
2026-05-01 13:49 42.69044 23.41555 1747 ft 1 kts 253°
2026-05-01 13:50 42.69040 23.41539 1748 ft 3 kts 251°
2026-05-01 13:50 42.69037 23.41524 1748 ft 2 kts 252°
2026-05-01 13:50 42.69035 23.41517 1749 ft 0 kts 253°